Total_Precipitation_Accumulation
0.12 0.12 0.12 0.13 0.12 0.13 0.15 0.17 0.19 0.20 0.23 0.28 0.33 0.39 0.44 0.52 0.71 1.35 1.25 0.67 1.29 1.77 0.61 0.05 0.01 0.07 0.28 0.44 0.52 0.50 0.56 0.31 0.28 0.31 0.19 0.09 0.11 0.03 0.01 0.00 0.00 0.01 0.06 0.10 0.13 0.23 0.09 0.00 0.00 0.01 0.01 0.01 0.01 0.01
0.12 0.12 0.13 0.14 0.14 0.15 0.17 0.18 0.20 0.21 0.23 0.25 0.31 0.39 0.43 0.53 0.75 1.37 1.53 0.61 1.02 2.13 1.20 0.11 0.02 0.00 0.06 0.17 0.62 1.10 0.50 0.18 0.36 0.34 0.21 0.33 0.24 0.12 0.03 0.04 0.01 0.02 0.02 0.03 0.05 0.04 0.01 0.01 0.00 0.01 0.01 0.01 0.01 0.01
0.12 0.12 0.12 0.13 0.13 0.15 0.17 0.19 0.20 0.22 0.23 0.29 0.40 0.43 0.47 0.57 0.76 1.14 1.12 0.77 1.31 2.00 1.32 0.41 0.10 0.02 0.05 0.13 0.36 1.04 0.93 0.45 0.55 0.33 0.52 0.52 0.44 0.16 0.12 0.09 0.04 0.04 0.01 0.10 0.10 0.05 0.01 0.02 0.01 0.01 0.01 0.01 0.01 0.01
0.11 0.11 0.12 0.13 0.13 0.14 0.16 0.18 0.20 0.24 0.32 0.43 0.47 0.50 0.57 0.61 0.67 0.82 0.86 0.59 0.89 1.64 1.41 0.43 0.04 0.02 0.01 0.06 0.26 0.55 0.67 0.67 0.63 0.58 0.62 0.44 0.27 0.19 0.18 0.07 0.07 0.06 0.08 0.15 0.18 0.06 0.05 0.07 0.02 0.01 0.01 0.01 0.00 0.00
0.12 0.12 0.13 0.13 0.14 0.15 0.18 0.21 0.26 0.34 0.43 0.50 0.55 0.61 0.65 0.65 0.64 0.59 0.51 0.42 0.40 0.95 1.33 0.69 0.24 0.08 0.01 0.03 0.16 0.35 0.54 0.66 0.64 0.56 0.49 0.32 0.17 0.21 0.24 0.16 0.09 0.03 0.04 0.10 0.11 0.04 0.07 0.06 0.03 0.04 0.03 0.02 0.01 0.01
0.13 0.12 0.12 0.13 0.15 0.19 0.24 0.30 0.42 0.51 0.55 0.60 0.63 0.66 0.66 0.65 0.63 0.54 0.69 0.29 0.18 0.48 1.37 0.99 0.42 0.07 0.02 0.03 0.11 0.22 0.31 0.40 0.42 0.38 0.31 0.26 0.18 0.21 0.29 0.12 0.02 0.01 0.05 0.10 0.08 0.05 0.05 0.06 0.04 0.04 0.03 0.02 0.02 0.03
0.13 0.13 0.15 0.18 0.22 0.26 0.33 0.47 0.57 0.63 0.70 0.71 0.69 0.73 0.73 0.68 0.49 0.55 0.58 0.28 0.27 0.58 1.12 0.94 0.55 0.11 0.02 0.04 0.10 0.14 0.16 0.21 0.24 0.27 0.21 0.13 0.10 0.22 0.23 0.07 0.02 0.04 0.08 0.09 0.06 0.03 0.03 0.02 0.03 0.01 0.01 0.01 0.02 0.01
0.18 0.20 0.23 0.26 0.30 0.37 0.50 0.62 0.70 0.74 0.77 0.79 0.85 0.88 0.84 0.64 0.46 0.43 0.41 0.53 0.50 0.70 0.82 0.76 0.44 0.16 0.10 0.10 0.09 0.11 0.13 0.14 0.16 0.14 0.10 0.04 0.08 0.14 0.13 0.03 0.03 0.06 0.05 0.04 0.02 0.01 0.02 0.01 0.00 0.00 0.01 0.01 0.01 0.00
0.24 0.26 0.29 0.33 0.42 0.51 0.62 0.71 0.77 0.76 0.82 0.96 1.01 0.83 0.71 0.54 0.37 0.32 0.44 0.49 0.47 0.54 0.71 0.47 0.22 0.22 0.17 0.11 0.12 0.10 0.10 0.10 0.09 0.06 0.02 0.03 0.03 0.02 0.02 0.02 0.02 0.02 0.01 0.01 0.00 0.00 0.00 0.00 0.00 0.00 0.00 0.00 0.01 0.00
0.24 0.27 0.33 0.42 0.51 0.60 0.70 0.81 0.83 0.81 1.16 1.09 0.93 0.96 0.90 0.46 0.37 0.42 0.51 0.51 0.51 0.42 0.37 0.22 0.14 0.19 0.15 0.13 0.12 0.12 0.10 0.06 0.05 0.02 0.00 0.00 0.01 0.01 0.00 0.01 0.01 0.01 0.00 0.00 0.00 0.00 0.00 0.00 0.00 0.00 0.01 0.01 0.02 0.02
0.28 0.32 0.40 0.49 0.57 0.65 0.76 0.89 0.88 0.99 1.12 1.02 1.07 0.92 0.77 0.54 0.39 0.40 0.44 0.33 0.25 0.17 0.14 0.07 0.07 0.11 0.16 0.14 0.13 0.14 0.09 0.06 0.05 0.02 0.01 0.00 0.00 0.00 0.00 0.00 0.00 0.00 0.00 0.00 0.01 0.01 0.01 0.02 0.01 0.01 0.00 0.01 0.01 0.02
0.32 0.38 0.47 0.56 0.63 0.69 0.80 0.92 0.98 0.87 1.17 1.09 1.05 0.91 0.73 0.52 0.47 0.35 0.27 0.11 0.11 0.11 0.11 0.05 0.09 0.11 0.13 0.12 0.13 0.13 0.09 0.09 0.05 0.02 0.01 0.01 0.00 0.00 0.00 0.00 0.00 0.00 0.00 0.00 0.00 0.00 0.00 0.01 0.01 0.01 0.02 0.01 0.01 0.02
0.36 0.45 0.55 0.62 0.70 0.74 0.76 0.90 1.07 1.07 1.26 1.34 1.27 1.08 0.69 0.52 0.42 0.25 0.08 0.06 0.09 0.11 0.09 0.10 0.11 0.10 0.12 0.13 0.15 0.11 0.09 0.06 0.03 0.02 0.01 0.00 0.00 0.00 0.00 0.00 0.00 0.00 0.00 0.00 0.00 0.00 0.00 0.00 0.00 0.01 0.01 0.01 0.01 0.01
0.42 0.49 0.56 0.63 0.68 0.62 0.66 0.97 0.99 1.12 1.56 1.61 1.03 0.65 0.34 0.28 0.16 0.13 0.14 0.18 0.23 0.23 0.21 0.19 0.20 0.20 0.18 0.17 0.14 0.09 0.07 0.03 0.02 0.00 0.00 0.00 0.00 0.00 0.00 0.00 0.00 0.00 0.00 0.00 0.00 0.00 0.00 0.00 0.00 0.00 0.01 0.01 0.02 0.01
0.43 0.53 0.61 0.63 0.60 0.61 0.77 0.93 1.09 1.39 1.81 1.51 1.01 0.59 0.33 0.12 0.12 0.18 0.21 0.20 0.23 0.23 0.19 0.18 0.17 0.13 0.11 0.10 0.06 0.04 0.03 0.01 0.00 0.00 0.00 0.00 0.00 0.00 0.00 0.00 0.00 0.00 0.00 0.00 0.00 0.00 0.00 0.00 0.00 0.00 0.01 0.01 0.02 0.02
0.61 0.76 0.64 0.44 0.44 0.55 0.60 0.68 1.00 1.29 1.34 1.14 0.75 0.35 0.21 0.22 0.31 0.34 0.33 0.32 0.31 0.25 0.21 0.15 0.11 0.08 0.06 0.04 0.02 0.01 0.01 0.00 0.00 0.00 0.00 0.00 0.00 0.00 0.00 0.00 0.00 0.00 0.00 0.00 0.00 0.00 0.00 0.00 0.00 0.00 0.01 0.02 0.03 0.03
0.76 0.69 0.55 0.37 0.60 0.77 1.08 1.14 1.19 0.99 0.91 0.58 0.26 0.21 0.26 0.29 0.30 0.29 0.25 0.23 0.21 0.17 0.13 0.09 0.05 0.03 0.02 0.01 0.00 0.00 0.00 0.00 0.00 0.00 0.00 0.00 0.00 0.00 0.00 0.00 0.00 0.00 0.00 0.00 0.00 0.00 0.00 0.00 0.00 0.00 0.01 0.01 0.02 0.03
0.74 0.61 0.55 0.39 0.57 0.79 0.89 0.86 0.97 0.89 0.50 0.28 0.23 0.29 0.31 0.33 0.32 0.30 0.26 0.21 0.15 0.10 0.05 0.02 0.01 0.00 0.00 0.00 0.00 0.00 0.00 0.00 0.00 0.00 0.00 0.00 0.00 0.00 0.00 0.00 0.00 0.00 0.00 0.00 0.00 0.00 0.00 0.00 0.00 0.00 0.01 0.01 0.01 0.02
0.61 0.78 1.03 0.72 0.62 0.61 0.77 0.61 0.52 0.45 0.31 0.30 0.33 0.35 0.32 0.31 0.29 0.23 0.15 0.08 0.03 0.01 0.00 0.00 0.00 0.00 0.00 0.00 0.00 0.00 0.00 0.00 0.00 0.00 0.00 0.00 0.00 0.00 0.00 0.00 0.00 0.00 0.00 0.00 0.00 0.00 0.00 0.00 0.00 0.00 0.01 0.01 0.01 0.01
0.75 1.23 1.00 0.73 0.60 0.63 0.56 0.46 0.20 0.23 0.24 0.25 0.28 0.28 0.25 0.21 0.14 0.08 0.02 0.00 0.00 0.00 0.00 0.00 0.00 0.00 0.00 0.00 0.00 0.00 0.00 0.00 0.00 0.00 0.00 0.00 0.00 0.00 0.00 0.00 0.00 0.00 0.00 0.00 0.00 0.01 0.02 0.00 0.00 0.00 0.01 0.05 0.03 0.00
0.58 0.70 0.53 0.52 0.59 0.53 0.41 0.29 0.17 0.19 0.21 0.19 0.23 0.16 0.14 0.09 0.02 0.00 0.00 0.00 0.00 0.00 0.00 0.00 0.00 0.00 0.00 0.00 0.00 0.00 0.00 0.00 0.00 0.00 0.00 0.01 0.01 0.00 0.00 0.00 0.00 0.00 0.00 0.00 0.00 0.00 0.04 0.00 0.00 0.00 0.01 0.01 0.00 0.00
0.49 0.51 0.45 0.51 0.49 0.37 0.31 0.26 0.17 0.17 0.16 0.18 0.16 0.12 0.09 0.03 0.00 0.00 0.00 0.00 0.00 0.00 0.00 0.00 0.00 0.00 0.00 0.00 0.00 0.00 0.00 0.00 0.00 0.00 0.01 0.01 0.01 0.00 0.00 0.00 0.00 0.00 0.00 0.00 0.00 0.00 0.00 0.00 0.01 0.03 0.01 0.00 0.01 0.00
0.34 0.34 0.36 0.38 0.32 0.22 0.22 0.18 0.16 0.14 0.13 0.13 0.12 0.08 0.05 0.00 0.00 0.00 0.00 0.00 0.00 0.00 0.00 0.00 0.00 0.00 0.00 0.00 0.00 0.00 0.00 0.00 0.00 0.00 0.00 0.00 0.00 0.00 0.00 0.00 0.00 0.00 0.00 0.00 0.00 0.00 0.00 0.01 0.02 0.04 0.02 0.01 0.00 0.00
0.25 0.27 0.28 0.22 0.16 0.15 0.11 0.11 0.14 0.13 0.13 0.12 0.09 0.05 0.00 0.00 0.00 0.00 0.00 0.00 0.00 0.00 0.00 0.00 0.00 0.00 0.00 0.00 0.00 0.00 0.00 0.00 0.00 0.00 0.00 0.00 0.00 0.00 0.00 0.00 0.00 0.00 0.00 0.00 0.00 0.00 0.00 0.00 0.01 0.01 0.00 0.00 0.00 0.00
0.19 0.22 0.20 0.12 0.08 0.09 0.12 0.15 0.14 0.11 0.10 0.08 0.02 0.00 0.00 0.00 0.00 0.00 0.00 0.00 0.00 0.00 0.00 0.00 0.00 0.00 0.00 0.00 0.00 0.00 0.00 0.00 0.00 0.00 0.00 0.00 0.00 0.00 0.00 0.00 0.00 0.00 0.00 0.00 0.00 0.00 0.00 0.00 0.00 0.00 0.00 0.00 0.00 0.02
0.16 0.16 0.11 0.09 0.11 0.13 0.16 0.15 0.12 0.08 0.03 0.00 0.00 0.00 0.00 0.00 0.00 0.00 0.00 0.00 0.00 0.00 0.00 0.00 0.00 0.00 0.00 0.00 0.00 0.00 0.00 0.00 0.00 0.00 0.00 0.00 0.00 0.00 0.00 0.00 0.00 0.00 0.00 0.00 0.00 0.01 0.00 0.00 0.00 0.00 0.00 0.01 0.04 0.08
0.12 0.12 0.10 0.13 0.14 0.13 0.11 0.09 0.04 0.01 0.00 0.00 0.00 0.00 0.00 0.00 0.00 0.00 0.00 0.00 0.00 0.00 0.00 0.00 0.00 0.00 0.00 0.00 0.00 0.00 0.00 0.00 0.00 0.00 0.00 0.00 0.00 0.00 0.00 0.00 0.00 0.00 0.01 0.01 0.01 0.01 0.01 0.01 0.00 0.00 0.00 0.00 0.00 0.00
0.10 0.13 0.15 0.15 0.09 0.05 0.03 0.01 0.00 0.00 0.00 0.00 0.00 0.00 0.00 0.00 0.00 0.00 0.00 0.00 0.00 0.00 0.00 0.00 0.00 0.00 0.00 0.00 0.00 0.00 0.00 0.00 0.00 0.00 0.00 0.00 0.00 0.00 0.00 0.00 0.00 0.02 0.04 0.02 0.03 0.03 0.01 0.00 0.01 0.01 0.01 0.01 0.00 0.00
0.14 0.14 0.08 0.04 0.01 0.00 0.00 0.00 0.00 0.00 0.00 0.00 0.00 0.00 0.00 0.00 0.00 0.00 0.00 0.00 0.00 0.00 0.00 0.00 0.00 0.00 0.00 0.00 0.00 0.00 0.00 0.00 0.00 0.00 0.00 0.01 0.01 0.01 0.00 0.00 0.00 0.00 0.00 0.01 0.03 0.07 0.08 0.10 0.10 0.09 0.03 0.01 0.01 0.00
0.11 0.05 0.02 0.01 0.00 0.00 0.00 0.00 0.00 0.00 0.00 0.00 0.00 0.00 0.00 0.00 0.00 0.00 0.00 0.00 0.00 0.00 0.00 0.00 0.00 0.00 0.00 0.00 0.00 0.00 0.00 0.00 0.01 0.01 0.01 0.01 0.02 0.01 0.01 0.01 0.01 0.01 0.01 0.01 0.01 0.01 0.06 0.10 0.09 0.08 0.04 0.01 0.01 0.01
0.03 0.02 0.00 0.00 0.00 0.00 0.00 0.00 0.00 0.00 0.00 0.00 0.00 0.00 0.00 0.00 0.00 0.00 0.00 0.00 0.00 0.00 0.00 0.00 0.00 0.00 0.00 0.00 0.00 0.00 0.00 0.01 0.01 0.02 0.02 0.01 0.02 0.02 0.02 0.01 0.01 0.02 0.02 0.01 0.01 0.02 0.02 0.03 0.02 0.02 0.02 0.01 0.01 0.02
0.01 0.00 0.00 0.00 0.00 0.00 0.00 0.00 0.00 0.00 0.00 0.00 0.00 0.00 0.00 0.00 0.00 0.00 0.00 0.00 0.00 0.00 0.00 0.00 0.00 0.00 0.00 0.00 0.00 0.00 0.01 0.02 0.02 0.02 0.02 0.03 0.02 0.03 0.04 0.03 0.02 0.02 0.02 0.03 0.04 0.04 0.03 0.03 0.03 0.03 0.02 0.02 0.02 0.01
0.00 0.00 0.00 0.00 0.00 0.00 0.00 0.00 0.00 0.00 0.00 0.00 0.00 0.00 0.00 0.00 0.00 0.00 0.00 0.00 0.00 0.00 0.00 0.00 0.00 0.00 0.00 0.00 0.00 0.00 0.02 0.03 0.03 0.05 0.07 0.10 0.11 0.14 0.12 0.05 0.04 0.04 0.05 0.06 0.07 0.06 0.05 0.05 0.04 0.04 0.04 0.03 0.02 0.02